カタログに戻る

QIANFAN-180

運用中通信PO
NORAD 69397·PAYLOAD·🇨🇳 China

打ち上げ Jun 4, 2026 から Taiyuan Satellite Launch Center

Loading…

次のパス (今後24時間)

TLE

最新Source: Space-Track

元期: Sep 14, 2026, 14:21 UTC

1 69397U 26124R   26257.59821617  .00000133  00000-0  18678-3 0  9990
2 69397  89.0052 352.5495 0001870  95.6163 264.5202 13.51021203 14148

AllMySatでQIANFAN-180をリアルタイム追跡

Download on the App Store